K9WAE Weather Reports


time (UTC)temp
F
wind
direction
speed
knots
gust
knots
rain 1hr
in
rain 24hr
in
rain mn
in
humidity
%
barometer
mb
20260509023813 62 0 0.0 0.0 0.00 0.00 0.00 57 1010.1
20260509022703 62 0 0.0 0.0 0.00 0.00 0.00 57 1010.0
20260509021803 62 0 0.0 0.0 0.00 0.00 0.00 57 1009.9
20260509021115 62 0 0.0 0.0 0.00 0.00 0.00 56 1009.9
20260509020003 62 0 0.0 0.0 0.00 0.00 0.00 56 1009.9
20260509015403 62 0 0.0 0.0 0.00 0.00 0.00 56 1010.0
20260509014503 62 0 0.0 0.0 0.00 0.00 0.00 56 1010.0
20260509013603 62 0 0.0 0.0 0.00 0.00 0.00 56 1009.9
20260509012704 63 0 0.0 0.0 0.00 0.00 0.00 56 1009.8
20260509011803 63 0 0.0 0.0 0.00 0.00 0.00 55 1009.9
20260509010903 64 0 0.0 0.0 0.00 0.00 0.00 54 1009.9
20260509010213 64 0 0.0 0.0 0.00 0.00 0.00 53 1009.9
20260509005403 64 0 0.0 0.0 0.00 0.00 0.00 53 1009.8
20260509004717 64 0 0.0 0.0 0.00 0.00 0.00 52 1009.8
20260509003603 65 0 0.0 0.0 0.00 0.00 0.00 51 1009.7
20260509002916 66 0 0.0 0.0 0.00 0.00 0.00 50 1009.6
20260509002014 66 0 0.0 0.0 0.00 0.00 0.00 50 1009.6
20260509000903 66 0 0.0 0.0 0.00 0.00 0.00 49 1009.7
20260509000004 67 0 0.0 0.0 0.00 0.00 0.00 48 1009.8
20260508235403 67 0 0.0 0.0 0.00 0.00 0.00 47 1009.9
20260508234503 67 205 0.0 1.7 0.00 0.00 0.00 46 1009.8
20260508233603 68 0 0.0 0.0 0.00 0.00 0.00 46 1009.9
20260508232703 68 0 0.0 0.0 0.00 0.00 0.00 45 1009.7
20260508231803 68 0 0.0 0.0 0.00 0.00 0.00 44 1009.8
20260508230903 69 0 0.0 0.0 0.00 0.00 0.00 45 1010.0
20260508230003 69 0 0.0 0.0 0.00 0.00 0.00 44 1010.1
20260508225403 69 0 0.0 0.0 0.00 0.00 0.00 43 1009.9
20260508224713 69 0 0.0 0.0 0.00 0.00 0.00 42 1009.9
20260508223603 70 0 0.0 0.0 0.00 0.00 0.00 42 1009.9
20260508222703 71 240 0.0 4.3 0.00 0.00 0.00 43 1009.7
20260508221803 70 0 0.0 0.0 0.00 0.00 0.00 44 1009.8
20260508220903 70 0 0.0 0.0 0.00 0.00 0.00 44 1009.6
20260508220004 70 0 0.0 0.0 0.00 0.00 0.00 44 1009.5
20260508215403 70 0 0.0 0.0 0.00 0.00 0.00 46 1009.7
20260508214503 70 0 0.0 0.0 0.00 0.00 0.00 42 1009.7
20260508213603 70 0 0.0 0.0 0.00 0.00 0.00 42 1009.9
20260508212913 70 0 0.0 0.0 0.00 0.00 0.00 42 1009.8
20260508211803 71 0 0.0 0.0 0.00 0.00 0.00 41 1009.9
20260508210903 72 0 0.0 0.0 0.00 0.00 0.00 41 1010.1
20260508210003 72 0 0.0 0.0 0.00 0.00 0.00 40 1010.4
20260508205617 71 202 0.0 3.5 0.00 0.00 0.00 42 1010.3
20260508204714 71 173 0.0 2.6 0.00 0.00 0.00 41 1010.4
20260508203817 71 234 0.0 0.9 0.00 0.00 0.00 42 1010.4
20260508202703 70 189 0.0 2.6 0.00 0.00 0.00 40 1010.7
20260508201803 71 220 0.0 5.2 0.00 0.00 0.00 41 1011.0
20260508201114 71 227 0.0 5.2 0.00 0.00 0.00 42 1011.0
20260508200003 71 0 0.0 0.0 0.00 0.00 0.00 42 1011.2
20260508195403 70 240 0.0 3.5 0.00 0.00 0.00 43 1011.2
20260508194503 70 151 0.0 1.7 0.00 0.00 0.00 42 1011.4
20260508193603 70 187 0.9 12.2 0.00 0.00 0.00 42 1011.5
20260508192703 70 0 0.0 0.0 0.00 0.00 0.00 41 1011.7
20260508191803 71 246 0.9 12.2 0.00 0.00 0.00 38 1011.8
20260508190903 70 0 0.0 0.0 0.00 0.00 0.00 45 1011.8
20260508190003 70 0 0.0 0.0 0.00 0.00 0.00 41 1011.6
20260508185403 70 194 1.7 13.9 0.00 0.00 0.00 43 1011.6
20260508184504 70 0 0.0 0.0 0.00 0.00 0.00 43 1011.7
20260508183603 70 0 0.0 0.0 0.00 0.00 0.00 42 1012.0
20260508182703 70 204 0.0 5.2 0.00 0.00 0.00 42 1012.2
20260508181803 70 216 0.0 5.2 0.00 0.00 0.00 44 1012.2
20260508180903 69 0 0.0 0.0 0.00 0.00 0.00 43 1012.5
20260508180004 68 0 0.0 0.0 0.00 0.00 0.00 41 1012.6
20260508175403 68 0 0.0 0.0 0.00 0.00 0.00 42 1012.8
20260508174504 68 0 0.0 0.0 0.00 0.00 0.00 41 1013.1
20260508173603 68 0 0.0 0.0 0.00 0.00 0.00 45 1013.2
20260508172703 68 0 0.0 0.0 0.00 0.00 0.00 41 1013.4
20260508171803 68 185 3.5 14.8 0.00 0.00 0.00 43 1013.5
20260508171115 68 174 0.9 10.4 0.00 0.00 0.00 44 1013.5
20260508170004 68 0 0.0 0.0 0.00 0.00 0.00 42 1013.7
20260508165404 68 0 0.0 0.0 0.00 0.00 0.00 43 1013.9
20260508164503 68 199 0.9 9.6 0.00 0.00 0.00 45 1014.0
20260508163603 68 0 0.0 0.0 0.00 0.00 0.00 47 1014.4
20260508162703 67 0 0.0 0.0 0.00 0.00 0.00 46 1014.5
20260508161803 66 0 0.0 0.0 0.00 0.00 0.00 46 1014.6
20260508160903 67 235 0.9 13.9 0.00 0.00 0.00 47 1014.7
20260508160004 66 251 2.6 13.9 0.00 0.00 0.00 48 1014.8
20260508155403 66 0 0.0 0.0 0.00 0.00 0.00 47 1014.9
20260508154503 65 282 0.0 5.2 0.00 0.00 0.00 45 1015.0
20260508153603 65 0 0.0 0.0 0.00 0.00 0.00 49 1015.2
20260508152703 65 0 0.0 0.0 0.00 0.00 0.00 46 1015.2
20260508151803 65 0 0.0 0.0 0.00 0.00 0.00 51 1015.4
20260508150903 65 0 0.0 0.0 0.00 0.00 0.00 48 1015.4
20260508150004 64 0 0.0 0.0 0.00 0.00 0.00 48 1015.5
20260508145403 64 0 0.0 0.0 0.00 0.00 0.00 51 1015.5
20260508144503 63 0 0.0 0.0 0.00 0.00 0.00 50 1015.6
20260508143815 63 0 0.0 0.0 0.00 0.00 0.00 51 1015.6
20260508142703 62 0 0.0 0.0 0.00 0.00 0.00 50 1015.7
20260508142015 62 0 0.0 0.0 0.00 0.00 0.00 51 1015.7
20260508140903 61 0 0.0 0.0 0.00 0.00 0.00 54 1015.8
20260508140003 61 0 0.0 0.0 0.00 0.00 0.00 52 1015.7
20260508135616 60 0 0.0 0.0 0.00 0.00 0.00 54 1015.8
20260508134503 60 251 0.0 6.1 0.00 0.00 0.00 54 1015.8
20260508133603 59 0 0.0 0.0 0.00 0.00 0.00 55 1015.9
20260508132703 58 251 0.0 2.6 0.00 0.00 0.00 57 1015.7
20260508131803 58 255 0.0 5.2 0.00 0.00 0.00 56 1015.8
20260508130903 57 0 0.0 0.0 0.00 0.00 0.00 57 1015.8
20260508130003 56 0 0.0 0.0 0.00 0.00 0.00 59 1015.8
20260508125403 56 0 0.0 0.0 0.00 0.00 0.00 58 1015.7
20260508124503 55 225 0.0 3.5 0.00 0.00 0.00 59 1015.8
20260508123603 54 239 0.0 0.9 0.00 0.00 0.00 60 1015.7
20260508122703 53 0 0.0 0.0 0.00 0.00 0.00 62 1015.7
20260508122017 52 0 0.0 0.0 0.00 0.00 0.00 63 1015.6
20260508121114 52 0 0.0 0.0 0.00 0.00 0.00 64 1015.7
20260508120003 50 0 0.0 0.0 0.00 0.00 0.00 64 1015.5
20260508115403 50 218 0.0 5.2 0.00 0.00 0.00 66 1015.6
20260508114503 49 224 0.9 5.2 0.00 0.00 0.00 66 1015.5
20260508113603 49 0 0.0 0.0 0.00 0.00 0.00 67 1015.4
20260508112703 48 0 0.0 0.0 0.00 0.00 0.00 68 1015.3
20260508111803 47 0 0.0 0.0 0.00 0.00 0.00 71 1015.3
20260508110903 46 0 0.0 0.0 0.00 0.00 0.00 73 1015.1
20260508110004 45 0 0.0 0.0 0.00 0.00 0.00 74 1015.1
20260508105403 45 0 0.0 0.0 0.00 0.00 0.00 74 1015.2
20260508104503 44 0 0.0 0.0 0.00 0.00 0.00 74 1015.1
20260508103603 45 0 0.0 0.0 0.00 0.00 0.00 74 1015.2
20260508102915 45 0 0.0 0.0 0.00 0.00 0.00 73 1015.1
20260508101803 45 0 0.0 0.0 0.00 0.00 0.00 73 1015.1
20260508100903 45 0 0.0 0.0 0.00 0.00 0.00 73 1015.1
20260508100004 46 0 0.0 0.0 0.00 0.00 0.00 72 1015.1
20260508095403 46 0 0.0 0.0 0.00 0.00 0.00 71 1015.1
20260508094503 46 0 0.0 0.0 0.00 0.00 0.00 71 1015.1
20260508093603 46 0 0.0 0.0 0.00 0.00 0.00 70 1015.1
20260508092703 46 0 0.0 0.0 0.00 0.00 0.00 70 1015.1
20260508091803 46 0 0.0 0.0 0.00 0.00 0.00 70 1015.1
20260508090903 47 0 0.0 0.0 0.00 0.00 0.00 69 1015.1
20260508090003 47 0 0.0 0.0 0.00 0.00 0.00 67 1015.1
20260508085403 47 0 0.0 0.0 0.00 0.00 0.00 67 1015.1
20260508084503 48 0 0.0 0.0 0.00 0.00 0.00 66 1015.1
20260508083814 48 0 0.0 0.0 0.00 0.00 0.00 65 1015.1
20260508082703 48 0 0.0 0.0 0.00 0.00 0.00 64 1015.0
20260508081803 48 0 0.0 0.0 0.00 0.00 0.00 64 1015.0
20260508080903 48 0 0.0 0.0 0.00 0.00 0.00 64 1014.9
20260508080003 48 0 0.0 0.0 0.00 0.00 0.00 64 1015.0
20260508075403 48 0 0.0 0.0 0.00 0.00 0.00 64 1015.0
20260508074712 48 0 0.0 0.0 0.00 0.00 0.00 64 1015.0
20260508073603 49 0 0.0 0.0 0.00 0.00 0.00 63 1015.1
20260508072703 49 0 0.0 0.0 0.00 0.00 0.00 63 1015.2
20260508071803 48 0 0.0 0.0 0.00 0.00 0.00 63 1015.2
20260508070903 48 0 0.0 0.0 0.00 0.00 0.00 64 1015.3
20260508070214 48 0 0.0 0.0 0.00 0.00 0.00 64 1015.4
20260508065403 49 0 0.0 0.0 0.00 0.00 0.00 64 1015.5
20260508064713 49 0 0.0 0.0 0.00 0.00 0.00 64 1015.5
20260508063815 49 0 0.0 0.0 0.00 0.00 0.00 63 1015.5
20260508062703 49 0 0.0 0.0 0.00 0.00 0.00 63 1015.6
20260508061803 49 0 0.0 0.0 0.00 0.00 0.00 63 1015.7
20260508060903 49 0 0.0 0.0 0.00 0.00 0.00 63 1015.7
20260508060003 49 0 0.0 0.0 0.00 0.00 0.00 63 1015.8
20260508055404 49 0 0.0 0.0 0.00 0.00 0.00 62 1015.9
20260508054503 49 0 0.0 0.0 0.00 0.00 0.00 63 1016.0
20260508053816 48 0 0.0 0.0 0.00 0.00 0.00 63 1016.0
20260508052913 48 0 0.0 0.0 0.00 0.00 0.00 63 1016.0
20260508051803 48 0 0.0 0.0 0.00 0.00 0.00 62 1016.0
20260508051113 48 0 0.0 0.0 0.00 0.00 0.00 62 1016.0
20260508050004 49 0 0.0 0.0 0.00 0.00 0.00 62 1016.0
20260508045403 49 0 0.0 0.0 0.00 0.00 0.00 61 1016.0
20260508044503 49 0 0.0 0.0 0.00 0.00 0.00 61 1016.0
20260508043603 49 0 0.0 0.0 0.00 0.00 0.00 61 1016.0
20260508042703 49 0 0.0 0.0 0.00 0.00 0.00 61 1016.1
20260508041803 49 0 0.0 0.0 0.00 0.00 0.00 60 1016.0
20260508040903 50 0 0.0 0.0 0.00 0.00 0.00 58 1016.1
20260508040216 50 0 0.0 0.0 0.00 0.00 0.00 58 1016.1
20260508035403 50 0 0.0 0.0 0.00 0.00 0.00 57 1016.0
20260508034503 50 0 0.0 0.0 0.00 0.00 0.00 57 1015.9
20260508033603 50 0 0.0 0.0 0.00 0.00 0.00 58 1015.9
20260508032703 49 0 0.0 0.0 0.00 0.00 0.00 60 1015.9
20260508031803 49 0 0.0 0.0 0.00 0.00 0.00 62 1015.9
20260508030903 47 0 0.0 0.0 0.00 0.00 0.00 66 1015.9
20260508030003 46 0 0.0 0.0 0.00 0.00 0.00 70 1015.9
20260508025403 45 0 0.0 0.0 0.00 0.00 0.00 72 1015.8
20260508024503 45 0 0.0 0.0 0.00 0.00 0.00 75 1015.7